Theta_e
322 322 323 323 323 323 324 325 325 325 327 329 330 330 330 330 330 324 317 324 323 332 328 316 311 315 315 314 315 311 299 298 299 298 299 301 301 305 308 309 312 315 313 316 324
320 321 322 323 322 323 323 324 325 325 325 327 329 329 329 329 324 319 328 332 334 332 317 313 308 313 309 310 312 307 299 300 305 298 295 297 301 305 305 308 308 311 316 321 327
320 320 321 322 322 322 322 323 323 324 325 326 327 328 328 328 316 317 331 333 334 330 319 316 310 308 304 308 309 307 302 305 307 301 299 298 299 302 304 303 308 310 314 320 324
320 319 321 321 321 322 321 322 323 323 325 325 325 324 326 322 301 320 331 332 334 325 318 311 306 303 301 303 308 303 309 310 308 305 300 297 298 299 304 303 307 313 319 320 321
319 318 318 320 320 321 321 321 322 322 322 324 324 322 321 313 311 323 330 330 328 320 315 309 304 304 302 302 305 303 306 309 311 309 305 299 296 297 299 303 312 318 319 320 320
318 317 318 319 320 320 320 321 321 321 322 322 323 322 311 303 322 324 326 325 323 316 314 312 306 309 305 303 302 305 307 307 310 309 304 300 299 296 299 311 315 317 317 319 320
317 317 317 317 318 319 319 320 320 321 321 321 320 314 305 304 320 321 325 323 323 317 312 314 313 310 307 303 308 307 301 302 305 309 306 300 298 299 299 312 313 314 316 318 319
316 316 316 317 317 318 319 319 319 320 320 320 320 310 301 311 312 315 322 320 318 316 312 315 316 310 307 306 304 302 299 294 302 305 308 306 299 308 302 310 310 312 312 316 317
316 316 316 316 316 317 318 318 318 319 319 318 308 306 298 314 307 312 319 316 314 314 314 317 315 305 303 296 293 297 290 293 298 304 301 305 302 310 307 309 307 309 311 314 316
315 316 316 316 316 317 317 316 316 315 313 311 309 300 301 301 308 314 320 316 310 311 310 310 308 302 300 297 287 289 294 293 295 298 295 292 301 304 300 299 305 308 311 312 313
315 315 316 316 316 317 313 305 298 297 302 296 299 297 300 305 314 311 317 312 311 308 301 305 299 296 298 301 296 294 294 292 295 299 294 295 296 299 301 295 295 297 307 311 314
315 315 315 316 316 316 308 297 296 298 293 300 300 301 302 307 301 307 315 305 305 298 302 300 296 300 301 300 299 294 293 293 296 298 297 295 295 299 299 299 301 297 297 308 312
314 314 315 315 315 311 303 299 305 303 291 295 299 298 300 302 298 301 308 306 302 298 299 296 298 302 300 298 296 295 293 292 293 293 294 292 293 293 298 301 300 299 298 300 307
314 314 314 314 307 305 300 304 306 303 283 287 294 297 301 302 295 306 310 305 301 298 298 297 301 299 298 297 298 293 297 297 295 291 288 294 286 292 296 297 297 301 300 298 298
313 313 314 313 300 299 302 306 304 299 270 286 293 302 300 296 296 298 310 305 297 299 299 294 295 296 295 297 300 294 300 296 293 290 291 289 289 291 293 295 298 301 301 303 301
313 312 312 305 303 302 308 304 299 282 271 286 294 293 292 294 295 298 301 306 305 300 300 297 300 299 297 299 300 299 296 295 294 293 287 290 290 290 291 296 297 300 304 305 303
312 311 307 305 297 306 307 300 281 275 281 280 287 293 291 290 291 294 295 295 294 289 290 295 295 298 300 296 298 298 295 286 285 285 285 290 287 293 295 296 297 298 299 302 304
310 309 306 304 306 306 301 287 275 272 276 290 291 292 287 291 290 291 291 290 296 295 290 288 285 295 300 296 294 295 294 285 280 281 283 286 286 291 298 304 300 299 298 298 298
309 302 301 304 306 304 291 279 274 274 283 286 287 286 286 290 290 291 290 290 291 297 289 288 288 297 299 297 298 294 291 293 282 272 278 283 286 291 294 295 294 297 297 295 296
301 299 299 303 304 298 286 277 275 287 288 287 280 285 284 286 287 287 288 293 293 296 300 291 286 295 296 298 296 296 298 289 288 274 274 280 280 287 290 295 295 293 295 294 293
299 292 298 302 300 290 282 278 280 289 289 284 282 283 287 286 288 287 288 291 295 296 299 294 289 291 295 294 293 293 292 293 293 283 278 275 281 288 294 297 294 294 293 293 292
292 283 298 300 286 282 276 279 287 287 289 287 287 285 282 284 284 287 287 290 297 297 294 297 289 286 291 289 292 297 295 294 289 284 281 281 282 289 293 291 293 295 295 292 292
287 285 297 292 278 278 279 283 286 287 287 287 285 286 288 286 283 286 288 295 299 298 295 295 289 284 286 289 292 293 294 296 293 286 284 283 286 289 286 288 290 291 292 291 291
287 282 286 290 278 278 277 277 280 287 287 288 287 289 287 285 288 285 289 295 298 300 301 297 288 288 284 288 292 289 293 295 294 288 288 288 289 288 286 288 288 289 290 290 290
284 276 283 280 280 277 275 278 278 280 286 288 284 285 284 280 283 283 288 288 297 299 299 294 288 289 291 292 291 291 293 293 292 293 289 292 288 290 288 288 290 289 288 289 290
281 281 284 271 281 281 277 272 276 275 283 283 282 286 286 282 284 284 289 292 291 297 296 294 287 285 282 288 291 289 292 293 294 295 294 293 290 293 292 286 287 289 289 289 290
286 286 284 284 281 281 277 274 279 283 285 287 287 287 285 287 290 292 294 294 293 294 293 290 287 286 284 285 287 284 290 292 293 295 295 291 295 293 291 288 289 289 289 291 292
Wind_Speed
22 21 20 20 20 18 17 16 14 9 9 11 15 14 15 13 9 3 7 6 6 8 5 2 4 4 5 4 4 2 2 4 4 4 3 5 0 1 2 7 1 2 6 4 13
24 22 22 21 21 19 18 16 15 12 11 9 12 16 14 10 9 11 5 5 9 12 6 5 4 4 4 3 2 2 4 7 4 2 1 4 2 4 3 4 1 2 1 5 16
25 23 22 21 21 22 19 16 14 13 14 10 8 11 15 13 7 7 16 12 9 9 8 4 2 4 4 1 0 2 4 5 2 1 1 3 2 3 5 4 7 9 7 11 13
25 24 23 21 20 21 20 18 15 13 12 11 8 6 10 8 11 5 14 17 12 6 7 7 3 4 5 5 2 2 5 2 0 3 2 4 6 4 6 5 3 8 15 14 14
27 25 25 22 21 20 20 19 16 14 11 10 11 8 5 9 12 4 17 21 10 7 9 7 6 5 5 6 5 3 3 2 3 6 2 3 4 4 7 6 3 9 12 16 14
29 27 26 23 21 20 20 19 18 15 13 10 9 10 1 11 0 2 10 11 7 10 8 8 9 6 3 6 6 8 5 3 4 3 6 4 5 5 5 3 5 10 13 14 15
30 28 26 24 21 20 18 18 18 16 14 13 12 3 3 11 4 2 13 12 12 13 11 7 6 7 7 3 5 5 4 3 6 3 4 3 9 12 7 4 5 8 9 11 11
31 30 27 24 23 19 18 17 17 17 15 13 14 4 8 3 8 4 5 4 8 5 2 3 4 3 4 2 3 5 5 4 5 8 6 5 16 14 9 8 10 8 7 10 12
31 30 29 26 24 20 18 16 15 15 16 12 6 4 5 5 5 7 2 8 9 6 4 4 5 3 2 6 1 5 5 5 3 10 4 11 7 16 9 9 9 9 10 12 11
31 31 29 27 25 21 19 16 12 10 7 4 3 4 6 11 10 7 5 9 6 12 4 6 6 5 6 8 13 6 12 5 9 7 6 5 16 8 2 8 14 11 13 12 12
32 32 30 28 26 24 19 10 7 2 10 11 8 2 6 7 10 11 8 9 6 12 13 10 10 20 27 19 7 8 6 7 4 5 5 15 16 15 15 3 8 10 9 14 17
33 32 31 29 28 26 14 7 7 6 9 11 1 16 3 4 7 12 17 11 9 17 14 8 21 29 13 12 11 6 8 10 4 5 7 4 17 15 7 10 14 12 13 15 12
35 34 32 31 29 19 16 8 8 4 6 6 12 6 6 5 5 18 20 16 10 18 22 20 21 14 16 14 15 15 13 5 2 3 2 5 11 5 10 17 12 11 12 12 16
37 35 33 31 20 14 12 8 6 3 5 4 9 11 7 4 7 8 19 15 7 22 22 14 17 22 18 19 14 20 5 4 3 4 4 7 8 6 7 12 11 18 15 15 14
37 36 35 30 14 15 11 8 7 6 4 7 9 6 16 11 6 9 10 17 23 13 11 19 19 23 25 29 23 10 10 6 3 2 1 3 5 7 1 8 12 14 16 18 18
39 37 35 12 7 11 19 10 6 5 10 4 8 15 17 19 6 2 11 15 6 17 17 9 6 12 8 4 10 7 6 4 2 2 9 9 8 7 8 12 6 7 16 17 14
37 37 24 11 13 17 17 11 8 8 4 6 7 15 24 18 21 9 17 24 13 13 13 24 14 6 14 12 5 9 9 4 7 6 11 6 9 17 6 7 8 9 10 12 12
36 34 19 6 16 22 12 8 7 5 8 2 5 11 22 13 21 25 15 23 28 18 7 15 12 19 18 19 17 30 23 6 10 9 6 3 13 8 14 20 9 11 8 6 8
36 9 8 13 18 15 15 16 10 8 8 9 2 10 13 18 8 19 29 26 25 18 11 13 11 19 15 7 16 15 18 9 6 3 3 7 9 9 10 15 9 11 9 10 9
11 12 8 15 15 12 9 8 4 4 5 4 8 7 10 16 15 21 20 23 22 27 19 7 8 22 6 5 1 16 16 11 2 6 6 6 7 9 9 14 12 10 15 11 9
13 8 7 10 8 7 13 7 4 4 6 6 7 6 3 7 16 13 13 13 29 23 25 6 4 7 12 17 20 9 17 9 5 6 7 3 10 10 12 15 12 12 10 10 10
6 6 8 8 7 2 5 8 5 5 5 2 2 5 6 6 2 20 20 20 22 29 34 29 8 14 27 5 1 20 19 20 13 17 4 0 9 2 11 3 8 10 10 7 8
6 5 3 6 8 6 1 3 6 8 7 7 7 7 6 6 5 11 15 19 13 26 26 17 8 8 10 4 4 15 17 22 11 4 13 13 11 1 3 6 7 8 9 8 8
7 7 3 4 2 9 7 3 4 2 4 4 5 7 7 8 6 6 4 8 15 27 35 19 7 24 17 29 24 18 34 28 24 16 23 20 12 5 5 7 5 6 6 6 7
4 2 2 10 7 6 4 8 7 7 5 10 5 12 7 5 7 10 10 5 20 26 29 17 18 17 23 18 14 21 24 24 28 32 17 26 12 9 9 11 12 8 5 7 8
5 6 3 3 8 7 7 6 10 3 9 6 7 6 12 16 15 6 8 8 19 19 26 12 10 7 4 10 22 23 22 25 22 28 22 25 17 8 10 3 5 9 9 8 10
1 2 6 8 8 9 6 5 7 6 6 5 7 12 18 17 17 17 12 11 14 17 25 10 9 14 19 5 12 10 26 29 29 28 30 28 34 8 7 9 11 11 12 17 18
Wind_Direction
214 214 216 210 205 200 202 192 188 192 199 197 186 186 183 234 164 219 213 221 183 162 114 119 42 59 20 76 32 287 105 186 199 171 259 343 257 53 83 114 50 342 159 228 138
216 213 211 208 205 199 197 196 195 193 200 198 202 189 182 199 191 205 213 202 159 144 115 157 145 97 44 47 44 170 202 202 185 182 312 301 283 169 126 123 288 315 26 119 142
214 210 210 203 203 199 195 192 188 189 194 187 190 203 179 161 264 223 204 186 201 160 129 113 115 98 99 47 142 201 225 172 236 113 33 288 359 316 135 230 202 194 164 152 157
206 207 204 200 197 197 194 194 185 183 187 172 163 173 189 187 219 240 194 197 191 161 113 117 106 109 126 161 185 267 252 238 58 62 36 340 314 297 194 233 308 186 166 156 170
202 200 200 199 194 194 196 196 189 179 182 186 162 156 163 217 216 208 186 200 165 146 155 146 141 143 168 165 120 235 255 214 247 313 221 324 291 252 265 273 37 135 159 176 175
199 197 195 193 191 190 191 192 190 184 174 178 172 142 203 237 297 77 186 176 162 160 173 149 177 182 148 180 175 205 202 290 259 215 321 351 288 31 301 118 135 163 176 185 185
199 191 192 191 186 186 188 186 185 186 175 172 164 154 195 226 117 328 176 192 162 179 173 184 155 150 138 128 241 152 135 339 253 217 225 179 279 232 242 155 194 206 190 189 200
198 189 188 186 186 184 185 181 179 178 179 178 158 147 242 258 254 308 172 131 148 163 111 158 111 121 163 187 81 142 143 175 229 164 218 145 257 261 212 173 216 214 212 197 205
193 187 184 182 182 179 179 173 170 169 175 168 106 188 225 179 175 213 182 162 164 119 143 115 111 200 132 140 134 213 194 186 292 200 129 181 246 260 195 196 222 209 215 217 210
188 181 179 177 177 170 167 157 156 153 151 93 51 153 250 201 169 160 190 158 153 155 149 179 178 184 188 182 211 189 207 201 204 212 192 198 240 254 250 187 222 214 212 217 218
184 178 176 171 166 164 155 124 111 117 195 187 173 131 292 172 148 175 153 163 153 178 182 196 201 208 203 207 213 157 178 207 220 178 138 220 237 242 247 211 239 240 218 223 220
181 176 173 169 163 160 149 172 182 167 177 239 188 220 239 22 167 191 157 180 184 199 175 178 220 214 188 208 212 183 188 225 304 164 182 243 252 245 233 240 224 227 233 226 229
175 172 170 165 159 157 174 154 162 111 118 181 224 204 254 175 256 200 186 192 199 198 189 205 219 202 191 191 203 214 209 198 188 104 292 355 272 226 244 238 228 232 226 227 221
169 167 165 158 152 159 175 177 140 72 81 231 189 220 193 205 246 206 195 188 201 209 189 229 217 187 191 201 187 218 161 182 184 126 230 165 281 242 236 239 214 233 219 227 218
165 164 162 160 136 174 140 130 99 55 140 220 164 173 163 186 141 211 181 212 208 200 172 202 193 190 189 202 184 212 160 200 197 184 348 184 269 260 179 251 244 226 231 223 221
164 161 155 133 120 148 137 116 76 143 235 164 139 171 162 197 191 74 170 219 211 204 212 210 220 184 179 137 155 132 107 70 81 126 241 218 205 245 202 226 250 227 229 226 217
161 153 144 152 149 137 133 140 153 208 269 199 175 173 187 187 199 197 190 198 197 213 187 201 195 134 148 138 138 187 176 174 207 207 248 191 198 243 215 238 227 245 237 229 220
146 137 137 125 140 138 149 140 184 203 199 259 156 173 195 169 204 202 191 210 217 193 177 186 188 182 179 191 181 195 197 171 196 194 209 111 238 234 223 251 229 233 244 258 225
134 115 112 144 145 144 145 180 194 192 161 149 93 175 204 195 184 188 212 210 213 199 181 189 211 181 182 180 157 187 202 191 98 24 76 204 279 295 252 260 248 237 235 244 242
122 130 128 142 146 145 157 178 172 169 95 126 170 189 198 188 186 191 196 212 215 207 224 191 172 186 187 108 264 182 176 184 194 158 249 254 282 230 222 225 229 224 223 235 242
120 121 128 140 114 132 184 206 188 187 150 143 181 176 236 183 206 186 214 224 205 211 208 213 213 185 150 200 185 165 187 206 206 164 186 232 249 206 212 218 215 220 213 213 221
98 106 150 166 129 106 156 174 174 162 209 134 143 172 176 172 76 221 215 210 195 200 199 203 205 190 201 159 172 197 204 195 203 210 228 77 273 202 238 203 207 219 208 205 218
93 93 82 64 154 157 118 168 172 154 179 167 192 202 207 173 196 204 244 251 207 193 195 180 218 176 174 214 29 202 210 199 221 73 213 219 254 337 282 245 225 217 196 201 197
97 117 109 135 172 131 141 192 182 214 159 146 178 188 204 221 221 233 237 258 195 202 201 181 203 198 201 199 185 186 198 199 203 220 229 225 239 261 260 236 229 232 197 188 184
52 154 163 173 167 111 127 162 159 192 203 188 215 200 173 231 220 230 231 250 228 203 214 212 207 207 213 201 177 206 205 201 207 222 213 233 225 258 231 214 211 202 159 165 190
112 127 79 99 130 135 181 216 177 260 169 209 216 159 218 232 220 237 195 206 233 197 205 208 189 150 163 176 196 200 198 208 219 232 234 247 249 188 229 139 160 192 182 195 202
10 72 101 139 135 169 211 190 189 165 243 203 190 227 241 242 242 266 254 256 244 243 207 212 168 172 208 184 156 205 197 198 209 220 216 223 230 152 212 209 209 204 191 202 204